Time,TemperatureF,DewpointF,PressureIn,WindDirection,WindDirectionDegrees,WindSpeedMPH,WindSpeedGustMPH,Humidity,HourlyPrecipIn,Conditions,Clouds,dailyrainin,SoftwareType,DateUTC
2013-04-24 00:01:00,39.1,20.6,30.22,SW,216,0.0,5.0,47,0.00,CLR,,0.00,WeatherDisplay:10.37,2013-04-24 08:01:00,
2013-04-24 00:16:00,39.1,21.0,30.22,SSW,206,2.0,6.0,48,0.00,CLR,,0.00,WeatherDisplay:10.37,2013-04-24 08:16:00,
2013-04-24 00:32:00,38.8,20.7,30.21,South,179,0.0,5.0,48,0.00,CLR,,0.00,WeatherDisplay:10.37,2013-04-24 08:32:00,
2013-04-24 00:46:00,38.5,21.0,30.21,South,191,3.0,7.0,49,0.00,CLR,,0.00,WeatherDisplay:10.37,2013-04-24 08:46:00,
2013-04-24 01:01:00,38.0,21.5,30.20,SSW,196,2.0,9.0,51,0.00,CLR,,0.00,WeatherDisplay:10.37,2013-04-24 09:01:00,
2013-04-24 01:16:00,37.9,21.8,30.20,SSW,213,2.0,9.0,52,0.00,CLR,,0.00,WeatherDisplay:10.37,2013-04-24 09:16:00,
2013-04-24 01:32:00,37.8,21.7,30.20,SW,226,5.0,9.0,52,0.00,CLR,,0.00,WeatherDisplay:10.37,2013-04-24 09:32:00,
2013-04-24 01:46:00,37.5,21.9,30.19,SW,227,6.0,9.0,53,0.00,CLR,,0.00,WeatherDisplay:10.37,2013-04-24 09:46:00,
2013-04-24 02:01:00,37.0,21.9,30.19,WSW,250,3.0,10.0,54,0.00,CLR,,0.00,WeatherDisplay:10.37,2013-04-24 10:01:00,
2013-04-24 02:16:00,36.5,21.8,30.19,WSW,258,6.0,9.0,55,0.00,CLR,,0.00,WeatherDisplay:10.37,2013-04-24 10:16:00,
2013-04-24 02:32:00,36.3,22.1,30.19,West,263,2.0,7.0,56,0.00,CLR,,0.00,WeatherDisplay:10.37,2013-04-24 10:32:00,
2013-04-24 02:46:00,36.0,21.8,30.19,West,274,5.0,7.0,56,0.00,CLR,,0.00,WeatherDisplay:10.37,2013-04-24 10:46:00,
2013-04-24 03:01:00,36.2,22.4,30.18,West,265,9.0,15.0,57,0.00,CLR,,0.00,WeatherDisplay:10.37,2013-04-24 11:01:00,
2013-04-24 03:16:00,36.8,25.0,30.18,WSW,246,13.0,27.0,62,0.00,CLR,,0.00,WeatherDisplay:10.37,2013-04-24 11:16:00,
2013-04-24 03:32:00,36.9,25.9,30.17,WSW,240,18.0,34.0,64,0.00,CLR,,0.00,WeatherDisplay:10.37,2013-04-24 11:32:00,
2013-04-24 03:46:00,36.3,26.4,30.17,WSW,243,18.0,34.0,67,0.00,CLR,,0.00,WeatherDisplay:10.37,2013-04-24 11:46:00,
2013-04-24 04:01:00,35.6,26.5,30.18,WSW,252,16.0,31.0,69,0.00,CLR,,0.00,WeatherDisplay:10.37,2013-04-24 12:01:00,
2013-04-24 04:16:00,34.5,28.3,30.18,WSW,251,16.0,28.0,78,0.00,CLR,,0.00,WeatherDisplay:10.37,2013-04-24 12:16:00,
2013-04-24 04:32:00,34.0,28.2,30.18,WSW,248,16.0,23.0,79,0.00,CLR,,0.00,WeatherDisplay:10.37,2013-04-24 12:32:00,
2013-04-24 04:46:00,33.5,28.9,30.18,WSW,254,12.0,23.0,83,0.00,CLR,,0.00,WeatherDisplay:10.37,2013-04-24 12:46:00,
2013-04-24 05:01:00,32.5,29.0,30.18,West,259,12.0,21.0,87,0.00,CLR,,0.00,WeatherDisplay:10.37,2013-04-24 13:01:00,
2013-04-24 05:16:00,31.8,29.8,30.18,WSW,253,12.0,18.0,92,0.00,CLR,,0.00,WeatherDisplay:10.37,2013-04-24 13:16:00,
2013-04-24 05:32:00,31.5,30.2,30.18,WSW,258,10.0,17.0,95,0.00,CLR,,0.00,WeatherDisplay:10.37,2013-04-24 13:32:00,
2013-04-24 05:46:00,31.5,30.5,30.18,WSW,253,12.0,20.0,96,0.00,CLR,,0.00,WeatherDisplay:10.37,2013-04-24 13:46:00,
2013-04-24 06:01:00,31.5,30.7,30.18,WSW,251,13.0,21.0,97,0.00,CLR,,0.00,WeatherDisplay:10.37,2013-04-24 14:01:00,
2013-04-24 06:16:00,31.5,30.7,30.18,WSW,252,10.0,20.0,97,0.00,CLR,,0.00,WeatherDisplay:10.37,2013-04-24 14:16:00,
2013-04-24 06:32:00,31.3,30.5,30.18,WSW,252,13.0,23.0,97,0.00,CLR,,0.00,WeatherDisplay:10.37,2013-04-24 14:32:00,
2013-04-24 06:46:00,31.3,30.5,30.17,WSW,257,9.0,18.0,97,0.00,CLR,,0.00,WeatherDisplay:10.37,2013-04-24 14:46:00,
2013-04-24 07:01:00,31.2,30.4,30.17,WSW,255,10.0,17.0,97,0.00,CLR,,0.00,WeatherDisplay:10.37,2013-04-24 15:01:00,
2013-04-24 07:16:00,31.2,30.7,30.17,WSW,255,9.0,19.0,98,0.00,CLR,,0.00,WeatherDisplay:10.37,2013-04-24 15:16:00,
2013-04-24 07:32:00,31.1,30.3,30.16,WSW,253,8.0,15.0,97,0.00,CLR,,0.00,WeatherDisplay:10.37,2013-04-24 15:32:00,
2013-04-24 07:46:00,31.1,30.3,30.16,WSW,250,9.0,15.0,97,0.00,CLR,,0.00,WeatherDisplay:10.37,2013-04-24 15:46:00,
2013-04-24 08:01:00,31.1,30.3,30.16,WSW,247,8.0,13.0,97,0.00,CLR,,0.00,WeatherDisplay:10.37,2013-04-24 16:01:00,
2013-04-24 08:16:00,31.0,30.2,30.16,WSW,249,8.0,14.0,97,0.00,CLR,,0.00,WeatherDisplay:10.37,2013-04-24 16:16:00,
2013-04-24 08:32:00,31.0,30.3,30.15,WSW,248,7.0,14.0,97,0.00,CLR,,0.00,WeatherDisplay:10.37,2013-04-24 16:32:00,
2013-04-24 08:46:00,31.1,30.6,30.14,WSW,252,6.0,13.0,98,0.00,CLR,,0.00,WeatherDisplay:10.37,2013-04-24 16:46:00,
2013-04-24 09:01:00,31.3,30.8,30.14,West,259,7.0,12.0,98,0.00,CLR,,0.00,WeatherDisplay:10.37,2013-04-24 17:01:00,
2013-04-24 09:16:00,31.5,31.0,30.14,West,262,7.0,12.0,98,0.00,CLR,,0.00,WeatherDisplay:10.37,2013-04-24 17:16:00,
2013-04-24 09:32:00,31.6,31.1,30.14,West,259,8.0,12.0,98,0.00,CLR,,0.00,WeatherDisplay:10.37,2013-04-24 17:32:00,
2013-04-24 09:46:00,31.7,31.2,30.14,West,262,7.0,12.0,98,0.00,CLR,,0.00,WeatherDisplay:10.37,2013-04-24 17:46:00,
2013-04-24 10:01:00,31.7,31.2,30.13,WSW,255,9.0,16.0,98,0.00,CLR,,0.00,WeatherDisplay:10.37,2013-04-24 18:01:00,
2013-04-24 10:16:00,31.6,31.1,30.13,WSW,256,7.0,16.0,98,0.00,CLR,,0.00,WeatherDisplay:10.37,2013-04-24 18:16:00,
2013-04-24 10:32:00,31.5,31.0,30.13,WSW,258,8.0,17.0,98,0.00,CLR,,0.00,WeatherDisplay:10.37,2013-04-24 18:32:00,
2013-04-24 10:46:00,31.4,30.9,30.12,WSW,254,9.0,16.0,98,0.00,CLR,,0.00,WeatherDisplay:10.37,2013-04-24 18:46:00,
2013-04-24 11:01:00,31.4,30.9,30.13,WSW,253,8.0,15.0,98,0.00,CLR,,0.00,WeatherDisplay:10.37,2013-04-24 19:01:00,
2013-04-24 11:16:00,31.3,30.8,30.12,WSW,253,7.0,12.0,98,0.00,CLR,,0.00,WeatherDisplay:10.37,2013-04-24 19:16:00,
2013-04-24 11:32:00,31.3,30.8,30.12,WSW,257,7.0,15.0,98,0.00,CLR,,0.00,WeatherDisplay:10.37,2013-04-24 19:32:00,
2013-04-24 11:46:00,31.3,30.8,30.12,WSW,250,8.0,14.0,98,0.00,CLR,,0.00,WeatherDisplay:10.37,2013-04-24 19:46:00,
2013-04-24 12:01:00,31.2,30.7,30.12,West,266,7.0,15.0,98,0.00,CLR,,0.00,WeatherDisplay:10.37,2013-04-24 20:01:00,
2013-04-24 12:16:00,31.1,30.6,30.12,WSW,257,7.0,20.0,98,0.00,CLR,,0.00,WeatherDisplay:10.37,2013-04-24 20:16:00,
2013-04-24 12:32:00,31.2,30.7,30.12,WSW,258,8.0,14.0,98,0.00,CLR,,0.00,WeatherDisplay:10.37,2013-04-24 20:32:00,
2013-04-24 12:46:00,31.0,30.5,30.11,West,260,10.0,17.0,98,0.00,CLR,,0.00,WeatherDisplay:10.37,2013-04-24 20:46:00,
2013-04-24 13:01:00,31.0,30.8,30.11,West,259,10.0,17.0,99,0.00,CLR,,0.00,WeatherDisplay:10.37,2013-04-24 21:01:00,
2013-04-24 13:16:00,31.2,31.2,30.10,West,259,10.0,20.0,100,0.00,CLR,,0.00,WeatherDisplay:10.37,2013-04-24 21:16:00,
2013-04-24 13:32:00,31.8,31.3,30.10,West,260,8.0,18.0,98,0.00,CLR,,0.00,WeatherDisplay:10.37,2013-04-24 21:32:00,
2013-04-24 13:46:00,32.1,31.1,30.10,WSW,256,7.0,16.0,96,0.00,CLR,,0.00,WeatherDisplay:10.37,2013-04-24 21:46:00,
2013-04-24 14:01:00,32.1,31.1,30.09,West,261,9.0,15.0,96,0.00,CLR,,0.00,WeatherDisplay:10.37,2013-04-24 22:01:00,
2013-04-24 14:16:00,32.1,31.6,30.09,West,269,9.0,17.0,98,0.00,CLR,,0.00,WeatherDisplay:10.37,2013-04-24 22:16:00,
2013-04-24 14:32:00,32.0,31.5,30.08,West,260,7.0,19.0,98,0.00,CLR,,0.00,WeatherDisplay:10.37,2013-04-24 22:32:00,
2013-04-24 14:46:00,32.5,32.0,30.08,West,270,8.0,15.0,98,0.00,CLR,,0.00,WeatherDisplay:10.37,2013-04-24 22:46:00,
2013-04-24 15:01:00,32.5,32.0,30.07,West,267,8.0,17.0,98,0.00,CLR,,0.00,WeatherDisplay:10.37,2013-04-24 23:01:00,
2013-04-24 15:16:00,32.6,32.1,30.07,West,273,8.0,17.0,98,0.00,CLR,,0.00,WeatherDisplay:10.37,2013-04-24 23:16:00,
2013-04-24 15:32:00,32.6,31.8,30.07,West,266,8.0,15.0,97,0.00,CLR,,0.00,WeatherDisplay:10.37,2013-04-24 23:32:00,
2013-04-24 15:46:00,32.7,31.7,30.06,West,265,8.0,15.0,96,0.00,CLR,,0.00,WeatherDisplay:10.37,2013-04-24 23:46:00,
2013-04-24 16:01:00,32.9,31.9,30.06,West,260,8.0,16.0,96,0.00,CLR,,0.00,WeatherDisplay:10.37,2013-04-25 00:01:00,
2013-04-24 16:16:00,33.4,32.4,30.05,West,259,9.0,14.0,96,0.00,CLR,,0.00,WeatherDisplay:10.37,2013-04-25 00:16:00,
2013-04-24 16:32:00,33.6,32.3,30.05,West,276,9.0,15.0,95,0.00,CLR,,0.00,WeatherDisplay:10.37,2013-04-25 00:32:00,
2013-04-24 16:46:00,33.8,32.5,30.05,West,260,7.0,16.0,95,0.00,CLR,,0.00,WeatherDisplay:10.37,2013-04-25 00:46:00,
2013-04-24 17:01:00,33.9,32.6,30.04,West,267,7.0,15.0,95,0.00,CLR,,0.00,WeatherDisplay:10.37,2013-04-25 01:01:00,
2013-04-24 17:16:00,34.0,32.2,30.04,WSW,257,8.0,15.0,93,0.00,CLR,,0.00,WeatherDisplay:10.37,2013-04-25 01:16:00,
2013-04-24 17:32:00,34.1,32.0,30.04,West,262,10.0,18.0,92,0.00,CLR,,0.00,WeatherDisplay:10.37,2013-04-25 01:32:00,
2013-04-24 17:46:00,34.2,32.2,30.04,West,261,8.0,16.0,92,0.00,CLR,,0.00,WeatherDisplay:10.37,2013-04-25 01:46:00,
2013-04-24 18:01:00,34.1,31.8,30.03,WSW,255,8.0,17.0,91,0.00,CLR,,0.00,WeatherDisplay:10.37,2013-04-25 02:01:00,
2013-04-24 18:16:00,34.3,31.9,30.03,West,268,6.0,17.0,91,0.00,CLR,,0.00,WeatherDisplay:10.37,2013-04-25 02:16:00,
2013-04-24 18:32:00,34.1,31.2,30.03,West,265,8.0,14.0,89,0.00,CLR,,0.00,WeatherDisplay:10.37,2013-04-25 02:32:00,
2013-04-24 18:46:00,34.2,31.0,30.03,West,274,8.0,16.0,88,0.00,CLR,,0.00,WeatherDisplay:10.37,2013-04-25 02:46:00,
2013-04-24 19:01:00,34.4,30.9,30.03,West,272,7.0,16.0,87,0.00,CLR,,0.00,WeatherDisplay:10.37,2013-04-25 03:01:00,
2013-04-24 19:16:00,34.7,30.9,30.03,West,277,8.0,15.0,86,0.00,CLR,,0.00,WeatherDisplay:10.37,2013-04-25 03:16:00,
2013-04-24 19:32:00,34.4,30.4,30.03,West,267,9.0,17.0,85,0.00,CLR,,0.00,WeatherDisplay:10.37,2013-04-25 03:32:00,
2013-04-24 19:46:00,34.5,30.5,30.03,West,278,6.0,14.0,85,0.00,CLR,,0.00,WeatherDisplay:10.37,2013-04-25 03:46:00,
2013-04-24 20:01:00,34.7,30.4,30.03,West,274,8.0,14.0,84,0.00,CLR,,0.00,WeatherDisplay:10.37,2013-04-25 04:01:00,
2013-04-24 20:16:00,34.1,29.5,30.03,West,268,6.0,16.0,83,0.00,CLR,,0.00,WeatherDisplay:10.37,2013-04-25 04:16:00,
2013-04-24 20:32:00,33.9,29.6,30.03,West,276,6.0,13.0,84,0.00,CLR,,0.00,WeatherDisplay:10.37,2013-04-25 04:32:00,
2013-04-24 20:46:00,35.0,30.0,30.03,West,264,3.0,12.0,82,0.00,CLR,,0.00,WeatherDisplay:10.37,2013-04-25 04:46:00,
2013-04-24 21:01:00,35.1,30.2,30.03,West,281,3.0,8.0,82,0.00,CLR,,0.00,WeatherDisplay:10.37,2013-04-25 05:01:00,
2013-04-24 21:16:00,34.7,28.5,30.03,WNW,288,2.0,7.0,78,0.00,CLR,,0.00,WeatherDisplay:10.37,2013-04-25 05:16:00,
2013-04-24 21:32:00,34.1,27.7,30.04,WNW,282,3.0,7.0,77,0.00,CLR,,0.00,WeatherDisplay:10.37,2013-04-25 05:32:00,
2013-04-24 21:46:00,33.9,26.8,30.04,West,281,3.0,7.0,75,0.00,CLR,,0.00,WeatherDisplay:10.37,2013-04-25 05:46:00,
2013-04-24 22:01:00,33.8,26.1,30.05,NW,321,3.0,8.0,73,0.00,CLR,,0.00,WeatherDisplay:10.37,2013-04-25 06:01:00,
2013-04-24 22:16:00,33.6,25.8,30.05,NW,312,5.0,8.0,73,0.00,CLR,,0.00,WeatherDisplay:10.37,2013-04-25 06:16:00,
2013-04-24 22:32:00,33.0,25.9,30.04,WNW,283,5.0,14.0,75,0.00,CLR,,0.00,WeatherDisplay:10.37,2013-04-25 06:32:00,
2013-04-24 22:46:00,32.3,25.8,30.05,West,271,3.0,8.0,77,0.00,CLR,,0.00,WeatherDisplay:10.37,2013-04-25 06:46:00,
2013-04-24 23:01:00,31.5,25.4,30.05,West,267,3.0,7.0,78,0.00,CLR,,0.00,WeatherDisplay:10.37,2013-04-25 07:01:00,
2013-04-24 23:16:00,30.8,25.3,30.05,West,265,5.0,7.0,80,0.00,CLR,,0.00,WeatherDisplay:10.37,2013-04-25 07:16:00,
2013-04-24 23:32:00,30.4,25.3,30.05,West,262,5.0,8.0,81,0.00,CLR,,0.00,WeatherDisplay:10.37,2013-04-25 07:32:00,
2013-04-24 23:46:00,30.1,25.2,30.05,West,271,5.0,8.0,82,0.00,CLR,,0.00,WeatherDisplay:10.37,2013-04-25 07:46:00,